This demonstration page uses our WeatherBlox Daily Observations layout. Learn more.

Left ArrowRight Arrow

Hourly Observations for September 10, 2018

Temp ( °F °C ) Dew Point ( °F °C ) Humidity (%) Winds ( mph kmh ) Pressure ( in mb ) Visibility ( mi km ) Precip ( " mm )
12:54 am 00:54 Clear 60 15.6 56 13.3 86 86 S 5 7 30.01 1016 10 16 0.00 0.00
1:54 am 01:54 Clear 60 15.6 56 13.3 86 86 SSW 3 6 30.03 1017 10 16 0.00 0.00
2:54 am 02:54 Clear 57 13.9 55 12.8 93 93 S 6 9 30.01 1016 10 16 0.00 0.00
3:54 am 03:54 Clear 57 13.9 55 12.8 93 93 SSE 5 7 30.00 1016 10 16 0.00 0.00
4:54 am 04:54 Clear 57 13.9 55 12.8 93 93 S 3 6 30.01 1016 10 16 0.00 0.00
5:54 am 05:54 Clear 57 13.9 55 12.8 93 93 Calm 30.01 1016 10 16 0.00 0.00
6:54 am 06:54 Clear 55 12.8 54 12.2 96 96 SSE 3 6 30.02 1017 10 16 0.00 0.00
7:54 am 07:54 Sunny 57 13.9 56 13.3 96 96 S 3 6 30.03 1017 8 13 0.00 0.00
8:54 am 08:54 Sunny 63 17.2 58 14.4 84 84 SW 7 11 30.04 1017 10 16 0.00 0.00
9:54 am 09:54 Sunny 68 20 59 15 73 73 SW 12 19 30.04 1017 10 16 0.00 0.00
10:54 am 10:54 Sunny 72 22.2 59 15 64 64 SSW 15 24 30.02 1017 10 16 0.00 0.00
11:54 am 11:54 Sunny 74 23.3 60 15.6 62 62 SSW 15 24 30.01 1016 10 16 0.00 0.00
12:54 pm 12:54 Sunny 77 25 61 16.1 58 58 S 12 19 29.99 1016 10 16 0.00 0.00
1:54 pm 13:54 Sunny 78 25.6 59 15 52 52 SSW 14 22 29.98 1015 10 16 0.00 0.00
2:54 pm 14:54 Sunny 79 26.1 59 15 50 50 S 10 17 29.97 1015 10 16 0.00 0.00
3:54 pm 15:54 Sunny 79 26.1 57 13.9 47 47 S 10 17 29.96 1014 10 16 0.00 0.00
4:54 pm 16:54 Sunny 80 26.7 58 14.4 47 47 S 13 20 29.94 1014 10 16 0.00 0.00
5:54 pm 17:54 Sunny 78 25.6 59 15 52 52 S 13 20 29.94 1014 10 16 0.00 0.00
6:54 pm 18:54 Sunny 76 24.4 60 15.6 58 58 S 10 17 29.94 1014 10 16 0.00 0.00
7:54 pm 19:54 Clear 71 21.7 60 15.6 68 68 S 9 15 29.94 1014 10 16 0.00 0.00
8:54 pm 20:54 Mostly Clear 68 20 60 15.6 76 76 S 8 13 29.96 1015 N/A 0.00 0.00
8:58 pm 20:58 Clear 68 20 60 15.6 76 76 S 8 13 29.94 1014 10 16 0.00 0.00
9:54 pm 21:54 Clear 64 17.8 60 15.6 87 87 S 8 13 29.98 1015 10 16 0.00 0.00
10:54 pm 22:54 Clear 64 17.8 60 15.6 87 87 S 7 11 29.99 1016 10 16 0.00 0.00
11:54 pm 23:54 Clear 63 17.2 59 15 87 87 S 3 6 29.99 1016 10 16 0.00 0.00

Powered by AerisWeather